,,,FIT����@�O���\���l,,,�e�h�s����@���сi����l�j,
,,,���z��,����,,���z��,����
���t,����,,MW,MW,,MW,MW
2024/1/1,0:00,,0,61.4,,0,94.3
2024/1/1,0:30,,0,61,,0,95.2
2024/1/1,1:00,,0,61.2,,0,91.6
2024/1/1,1:30,,0,61.5,,0,88.4
2024/1/1,2:00,,0,61.9,,0,77.4
2024/1/1,2:30,,0,62.7,,0,70.2
2024/1/1,3:00,,0,64.1,,0,66.7
2024/1/1,3:30,,0,58.6,,0,61.2
2024/1/1,4:00,,0,46.4,,0,58.1
2024/1/1,4:30,,0,41,,0,53.7
2024/1/1,5:00,,0,42.3,,0,43.3
2024/1/1,5:30,,0,44.2,,0,35.8
2024/1/1,6:00,,0,46.8,,0,30.7
2024/1/1,6:30,,0,47.7,,0,23.4
2024/1/1,7:00,,0.8,47,,0,16.4
2024/1/1,7:30,,2.5,45.4,,23.4,21.1
2024/1/1,8:00,,6.7,42.8,,50.7,18.8
2024/1/1,8:30,,11.4,42.2,,95.6,19.3
2024/1/1,9:00,,19.6,43.7,,124.5,18.4
2024/1/1,9:30,,27.6,43.6,,171.1,16.4
2024/1/1,10:00,,44.7,41.9,,217.2,10.3
2024/1/1,10:30,,63,41.4,,270.5,17
2024/1/1,11:00,,110.1,42.2,,270,19.9
2024/1/1,11:30,,138.7,43.2,,275.9,22.5
2024/1/1,12:00,,220.1,44.7,,261.8,22.6
2024/1/1,12:30,,235.9,43.6,,240.5,26.8
2024/1/1,13:00,,282.8,40,,208.4,25.8
2024/1/1,13:30,,270.3,38.7,,172.1,24.9
2024/1/1,14:00,,244.7,39.6,,133.5,23.2
2024/1/1,14:30,,183.2,39.1,,74,22.4
2024/1/1,15:00,,106.8,37.2,,34.8,24.3
2024/1/1,15:30,,51.2,34.9,,5.3,23.4
2024/1/1,16:00,,0,32.4,,0,20.6
2024/1/1,16:30,,0,31.6,,0,24.2
2024/1/1,17:00,,0,32.5,,0.4,21.9
2024/1/1,17:30,,0,33.1,,0.1,25.6
2024/1/1,18:00,,0,33.5,,0,25.2
2024/1/1,18:30,,0,34.4,,0,26.9
2024/1/1,19:00,,0,36,,0,21.2
2024/1/1,19:30,,0,37.8,,0,21.8
2024/1/1,20:00,,0,39.8,,0,21.3
2024/1/1,20:30,,0,40.6,,0,24.9
2024/1/1,21:00,,0,40.3,,0,25.7
2024/1/1,21:30,,0,40.6,,0,27.6
2024/1/1,22:00,,0,41.7,,0,28.8
2024/1/1,22:30,,0,43.1,,0,32
2024/1/1,23:00,,0,44.8,,0,41.9
2024/1/1,23:30,,0,46.3,,0,64.9
2024/1/2,0:00,,0,57.2,,0,66.8
2024/1/2,0:30,,0,60.4,,0,77.3
2024/1/2,1:00,,0,64.3,,0,79.1
2024/1/2,1:30,,0,66.3,,0,99.5
2024/1/2,2:00,,0,66.5,,0,116.1
2024/1/2,2:30,,0,66,,0,122.9
2024/1/2,3:00,,0,64.8,,0,126.7
2024/1/2,3:30,,0,62.7,,0,129.2
2024/1/2,4:00,,0,59.9,,0,128.4
2024/1/2,4:30,,0,59.8,,0,130.7
2024/1/2,5:00,,0,62.3,,0,121.9
2024/1/2,5:30,,0,66.4,,0,127.3
2024/1/2,6:00,,0,71.9,,0,121.1
2024/1/2,6:30,,0,73.7,,0,105.4
2024/1/2,7:00,,2.5,71.9,,0,109.7
2024/1/2,7:30,,8.7,70.5,,65.8,116.4
2024/1/2,8:00,,21.3,69.4,,139,114.1
2024/1/2,8:30,,33.1,69.6,,153,119.1
2024/1/2,9:00,,51.7,71.2,,159.6,117.4
2024/1/2,9:30,,67.5,72,,228.7,115.2
2024/1/2,10:00,,98.9,72,,280,114.5
2024/1/2,10:30,,112,72.6,,311.7,113.1
2024/1/2,11:00,,131.4,73.6,,334.8,101.7
2024/1/2,11:30,,135.3,76.8,,363.2,98.7
2024/1/2,12:00,,144.6,82.2,,359.2,99
2024/1/2,12:30,,139.9,82.6,,356.6,99.3
2024/1/2,13:00,,127,78,,332.4,100.5
2024/1/2,13:30,,110.8,75.5,,289.3,94.6
2024/1/2,14:00,,91.8,75.1,,221.1,83.8
2024/1/2,14:30,,69,73.5,,129.1,85
2024/1/2,15:00,,41.7,70.8,,52.1,79.6
2024/1/2,15:30,,21.9,65.6,,8.2,73.9
2024/1/2,16:00,,0,58.1,,0,58.2
2024/1/2,16:30,,0,54.9,,0,59.7
2024/1/2,17:00,,0,56,,0.3,56.4
2024/1/2,17:30,,0,56.8,,0.1,59
2024/1/2,18:00,,0,57.5,,0,64.3
2024/1/2,18:30,,0,56.1,,0,67.9
2024/1/2,19:00,,0,52.5,,0,65.4
2024/1/2,19:30,,0,49.8,,0,81.4
2024/1/2,20:00,,0,48.1,,0,86.4
2024/1/2,20:30,,0,47.7,,0,86.1
2024/1/2,21:00,,0,48.8,,0,76.3
2024/1/2,21:30,,0,47.5,,0,74.7
2024/1/2,22:00,,0,43.7,,0,73.4
2024/1/2,22:30,,0,44.3,,0,72.1
2024/1/2,23:00,,0,49.2,,0,76.3
2024/1/2,23:30,,0,52.9,,0,81.7
2024/1/3,0:00,,0,61.6,,0,88.1
2024/1/3,0:30,,0,58.3,,0,87.5
2024/1/3,1:00,,0,57.2,,0,76.9
2024/1/3,1:30,,0,54.9,,0,69.5
2024/1/3,2:00,,0,51.4,,0,65.8
2024/1/3,2:30,,0,48.9,,0,67.1
2024/1/3,3:00,,0,47.5,,0,62.1
2024/1/3,3:30,,0,46.5,,0,60.9
2024/1/3,4:00,,0,45.9,,0,56.1
2024/1/3,4:30,,0,43,,0,53.7
2024/1/3,5:00,,0,38,,0,46.1
2024/1/3,5:30,,0,34.5,,0,46.9
2024/1/3,6:00,,0,32.5,,0,44.3
2024/1/3,6:30,,0,30.8,,0,39.6
2024/1/3,7:00,,21,29.4,,0.8,30.6
2024/1/3,7:30,,65.9,27.6,,88.1,28.2
2024/1/3,8:00,,148.8,25.5,,186.9,23.8
2024/1/3,8:30,,226.3,23.4,,275.1,22.4
2024/1/3,9:00,,304.6,21.4,,348.5,20.1
2024/1/3,9:30,,370.2,20.2,,455.1,21.4
2024/1/3,10:00,,424.6,19.9,,503,19.2
2024/1/3,10:30,,459.7,19.1,,563.4,16.6
2024/1/3,11:00,,476,17.7,,577.5,9.6
2024/1/3,11:30,,483.6,16.4,,581,6.9
2024/1/3,12:00,,481.2,15,,540,6.6
2024/1/3,12:30,,461.1,14.1,,503.9,7.6
2024/1/3,13:00,,420.2,13.6,,444.5,7.7
2024/1/3,13:30,,364,13.7,,376.1,6.4
2024/1/3,14:00,,295,14.2,,273.5,5.8
2024/1/3,14:30,,215.1,15,,161.7,6
2024/1/3,15:00,,124.6,15.9,,64.9,10
2024/1/3,15:30,,61.7,17.2,,11.3,12.3
2024/1/3,16:00,,0,19,,0.3,12.1
2024/1/3,16:30,,0,21.4,,0.4,15.6
2024/1/3,17:00,,0,24.7,,0,15
2024/1/3,17:30,,0,25.5,,0,15.6
2024/1/3,18:00,,0,23.8,,0,13.4
2024/1/3,18:30,,0,22.4,,0,13.4
2024/1/3,19:00,,0,21.4,,0,6.8
2024/1/3,19:30,,0,21.2,,0,5
2024/1/3,20:00,,0,21.8,,0,3.6
2024/1/3,20:30,,0,22.4,,0,4.9
2024/1/3,21:00,,0,23.1,,0,5.2
2024/1/3,21:30,,0,24.1,,0,6.6
2024/1/3,22:00,,0,25.3,,0,7.2
2024/1/3,22:30,,0,26.8,,0,7.7
2024/1/3,23:00,,0,28.6,,0,13.2
2024/1/3,23:30,,0,28.1,,0,14.2
2024/1/4,0:00,,0,15.4,,0,12.3
2024/1/4,0:30,,0,14.8,,0,13.1
2024/1/4,1:00,,0,15.4,,0,11.8
2024/1/4,1:30,,0,16,,0,11.6
2024/1/4,2:00,,0,16.5,,0,8.2
2024/1/4,2:30,,0,17.3,,0,9.2
2024/1/4,3:00,,0,18.3,,0,6.7
2024/1/4,3:30,,0,19.3,,0,6.7
2024/1/4,4:00,,0,20.4,,0,4.9
2024/1/4,4:30,,0,21.4,,0,4.4
2024/1/4,5:00,,0,22.5,,0,2.8
2024/1/4,5:30,,0,22.5,,0,3.3
2024/1/4,6:00,,0,21.5,,0,3.3
2024/1/4,6:30,,0,20.8,,0,4
2024/1/4,7:00,,30.2,20.5,,0.3,3.5
2024/1/4,7:30,,96.5,19.2,,116.1,4.1
2024/1/4,8:00,,213.4,17.1,,251.6,2.7
2024/1/4,8:30,,323.2,15.9,,376.9,3.4
2024/1/4,9:00,,431.6,15.6,,468.9,2.5
2024/1/4,9:30,,516,15.2,,600.7,3.1
2024/1/4,10:00,,585.6,14.7,,674.4,4.8
2024/1/4,10:30,,637.5,15,,729.2,9
2024/1/4,11:00,,677,16.2,,747.5,13.4
2024/1/4,11:30,,691.9,19.9,,756.2,15.9
2024/1/4,12:00,,686.4,26.1,,732.6,17
2024/1/4,12:30,,658.7,30.9,,699.1,15.6
2024/1/4,13:00,,620.8,34.6,,622.1,14.2
2024/1/4,13:30,,545.9,36.7,,524.9,9.1
2024/1/4,14:00,,450,37.4,,409.6,7.2
2024/1/4,14:30,,326.2,37.5,,269.8,6
2024/1/4,15:00,,183.5,37,,134.4,6.5
2024/1/4,15:30,,86.2,36.3,,32.4,4.9
2024/1/4,16:00,,0,35.1,,0.4,2.7
2024/1/4,16:30,,0,33.6,,0,2.2
2024/1/4,17:00,,0,31.8,,0,2.2
2024/1/4,17:30,,0,31.5,,0,3.9
2024/1/4,18:00,,0,32.8,,0,3.3
2024/1/4,18:30,,0,32.9,,0,5.1
2024/1/4,19:00,,0,32,,0,3.7
2024/1/4,19:30,,0,31.7,,0,4.1
2024/1/4,20:00,,0,31.9,,0,5
2024/1/4,20:30,,0,33.1,,0,7
2024/1/4,21:00,,0,35.2,,0,7
2024/1/4,21:30,,0,35.8,,0,9.4
2024/1/4,22:00,,0,35,,0,10.7
2024/1/4,22:30,,0,34.9,,0,13.2
2024/1/4,23:00,,0,35.4,,0,20.9
2024/1/4,23:30,,0,34.8,,0,35.6
2024/1/5,0:00,,0,26.6,,0,37.8
2024/1/5,0:30,,0,28.4,,0,38.8
2024/1/5,1:00,,0,33,,0,29.4
2024/1/5,1:30,,0,35.6,,0,26.9
2024/1/5,2:00,,0,36.3,,0,31.2
2024/1/5,2:30,,0,37.1,,0,33.5
2024/1/5,3:00,,0,38.1,,0,28.4
2024/1/5,3:30,,0,39,,0,33.5
2024/1/5,4:00,,0,39.6,,0,40.5
2024/1/5,4:30,,0,36.9,,0,53.2
2024/1/5,5:00,,0,30.7,,0,57.3
2024/1/5,5:30,,0,30.4,,0,65
2024/1/5,6:00,,0,35.7,,0,70
2024/1/5,6:30,,0,41.9,,0,68.9
2024/1/5,7:00,,25.3,48.9,,0.7,68.5
2024/1/5,7:30,,68,54.1,,104.3,77.7
2024/1/5,8:00,,138.7,57.7,,205.4,79.9
2024/1/5,8:30,,203.8,63.5,,251.8,96.9
2024/1/5,9:00,,271.3,71.6,,290.8,96.9
2024/1/5,9:30,,323.5,75.6,,311.1,100.2
2024/1/5,10:00,,368.1,75.3,,321.6,92.5
2024/1/5,10:30,,393.7,73.2,,359.6,87.2
2024/1/5,11:00,,401.2,69.3,,345.8,85.1
2024/1/5,11:30,,403.5,68.6,,323.8,79.8
2024/1/5,12:00,,400.8,71.1,,293.8,77.9
2024/1/5,12:30,,386.1,74.7,,257.5,79.7
2024/1/5,13:00,,358.9,79.4,,231.4,82.8
2024/1/5,13:30,,314.1,80.5,,228.4,80.6
2024/1/5,14:00,,253.2,77.8,,178.9,87.5
2024/1/5,14:30,,184.3,77,,107.8,96.1
2024/1/5,15:00,,107.4,78,,57.2,100.3
2024/1/5,15:30,,54.6,74.9,,17.3,104.1
2024/1/5,16:00,,0,67.6,,0.8,103.4
2024/1/5,16:30,,0,65.6,,1.2,102.5
2024/1/5,17:00,,0,68.8,,0.5,98.9
2024/1/5,17:30,,0,71.4,,0,100
2024/1/5,18:00,,0,73.4,,0,97.4
2024/1/5,18:30,,0,77.6,,0,97.3
2024/1/5,19:00,,0,84.1,,0,87.5
2024/1/5,19:30,,0,87.9,,0,92.6
2024/1/5,20:00,,0,88.8,,0,97.5
2024/1/5,20:30,,0,90.6,,0,99.5
2024/1/5,21:00,,0,93.3,,0,82.1
2024/1/5,21:30,,0,96.1,,0,61.8
2024/1/5,22:00,,0,98.9,,0,54.3
2024/1/5,22:30,,0,100.7,,0,54.6
2024/1/5,23:00,,0,79.9,,0,49
2024/1/5,23:30,,0,81.6,,0,45.6
2024/1/6,0:00,,0,77.6,,0,45.7
2024/1/6,0:30,,0,76.9,,0,45.8
2024/1/6,1:00,,0,75.2,,0,44.1
2024/1/6,1:30,,0,73.9,,0,45.9
2024/1/6,2:00,,0,73,,0,43.8
2024/1/6,2:30,,0,73.2,,0,52.2
2024/1/6,3:00,,0,74.5,,0,50.8
2024/1/6,3:30,,0,76.1,,0,47.6
2024/1/6,4:00,,0,77.9,,0,46.2
2024/1/6,4:30,,0,78.8,,0,48
2024/1/6,5:00,,0,78.7,,0,48.2
2024/1/6,5:30,,0,77.7,,0,48.4
2024/1/6,6:00,,0,75.6,,0,42.1
2024/1/6,6:30,,0,73.4,,0,42.7
2024/1/6,7:00,,32.6,71,,0.4,43.4
2024/1/6,7:30,,94.3,69.1,,96.9,44.8
2024/1/6,8:00,,206.9,67.5,,202,46.3
2024/1/6,8:30,,310,65.5,,324.1,53.4
2024/1/6,9:00,,413.8,63.1,,426.7,57.6
2024/1/6,9:30,,491.7,61,,512.7,59.5
2024/1/6,10:00,,554,68.4,,549.1,62.2
2024/1/6,10:30,,599,67.3,,580.3,64.4
2024/1/6,11:00,,628.1,67.9,,619.6,58.8
2024/1/6,11:30,,644.8,68.2,,637.5,57.6
2024/1/6,12:00,,647.7,68.1,,564.7,60.2
2024/1/6,12:30,,625.4,66.8,,549,59.8
2024/1/6,13:00,,579.6,64.1,,488.4,58.5
2024/1/6,13:30,,514.8,61,,448.2,54.6
2024/1/6,14:00,,429.4,57.4,,368.7,58.6
2024/1/6,14:30,,318.4,55.3,,244.5,65.5
2024/1/6,15:00,,182.2,54.8,,123.4,65
2024/1/6,15:30,,88.6,52.8,,27.3,62.1
2024/1/6,16:00,,0,49.4,,0.1,63.8
2024/1/6,16:30,,0,47.9,,0.1,66.2
2024/1/6,17:00,,0,48.4,,0.4,60.9
2024/1/6,17:30,,0,49.5,,0.1,64.3
2024/1/6,18:00,,0,51.1,,0,63.2
2024/1/6,18:30,,0,51.7,,0,64.3
2024/1/6,19:00,,0,51.1,,0,56.7
2024/1/6,19:30,,0,51.1,,0,54.7
2024/1/6,20:00,,0,51.8,,0,44.3
2024/1/6,20:30,,0,52.5,,0,42.9
2024/1/6,21:00,,0,53.5,,0,42.8
2024/1/6,21:30,,0,53.9,,0,47.3
2024/1/6,22:00,,0,54,,0,47.8
2024/1/6,22:30,,0,55.2,,0,47
2024/1/6,23:00,,0,57.7,,0,61.7
2024/1/6,23:30,,0,57.9,,0,77.6
2024/1/7,0:00,,0,76.3,,0,87.7
2024/1/7,0:30,,0,70.6,,0,93.4
2024/1/7,1:00,,0,57.1,,0,91.7
2024/1/7,1:30,,0,53.4,,0,90.2
2024/1/7,2:00,,0,59.5,,0,88.9
2024/1/7,2:30,,0,61.7,,0,90.2
2024/1/7,3:00,,0,60.1,,0,91.4
2024/1/7,3:30,,0,58.6,,0,102.1
2024/1/7,4:00,,0,57.3,,0,110.6
2024/1/7,4:30,,0,55.7,,0,115.1
2024/1/7,5:00,,0,53.8,,0,116.1
2024/1/7,5:30,,0,51.3,,0,112.1
2024/1/7,6:00,,0,48.1,,0,110
2024/1/7,6:30,,0,47.1,,0,107.5
2024/1/7,7:00,,34.7,48.3,,0.8,106.6
2024/1/7,7:30,,104.8,49,,97.2,113.7
2024/1/7,8:00,,228,49.2,,227,113.5
2024/1/7,8:30,,344.5,48.8,,358.7,113.8
2024/1/7,9:00,,465.9,47.9,,435.5,113.9
2024/1/7,9:30,,555.8,48.7,,500.1,117.7
2024/1/7,10:00,,625.4,51.1,,546,116.3
2024/1/7,10:30,,669.7,54,,527.2,119
2024/1/7,11:00,,694.9,57.3,,493.9,112.9
2024/1/7,11:30,,695.6,62.1,,496.7,108.7
2024/1/7,12:00,,687,68.2,,473.3,108.1
2024/1/7,12:30,,650.1,71.5,,444.3,108.5
2024/1/7,13:00,,588,71.8,,426.1,107.7
2024/1/7,13:30,,507.8,70.5,,377,112.9
2024/1/7,14:00,,410.3,67.6,,312.9,119.1
2024/1/7,14:30,,298.2,66.7,,191,118.1
2024/1/7,15:00,,170.9,67.9,,84.6,113.6
2024/1/7,15:30,,83.6,66.5,,22.4,112.2
2024/1/7,16:00,,0,62.4,,0.4,109.5
2024/1/7,16:30,,0,59.8,,0.4,114.9
2024/1/7,17:00,,0,58.7,,0.1,115.8
2024/1/7,17:30,,0,59.2,,0.3,117.8
2024/1/7,18:00,,0,61.1,,0,117.8
2024/1/7,18:30,,0,60.7,,0,119.7
2024/1/7,19:00,,0,57.9,,0,111.1
2024/1/7,19:30,,0,57,,0,105.5
2024/1/7,20:00,,0,58.1,,0,98.4
2024/1/7,20:30,,0,59.7,,0,94.7
2024/1/7,21:00,,0,61.8,,0,89.9
2024/1/7,21:30,,0,64.3,,0,89.8
2024/1/7,22:00,,0,67.3,,0,86.2
2024/1/7,22:30,,0,71.5,,0,87.7
2024/1/7,23:00,,0,77,,0,91.5
2024/1/7,23:30,,0,83.2,,0,99.7
2024/1/8,0:00,,0,80,,0,97.5
2024/1/8,0:30,,0,80.9,,0,91.9
2024/1/8,1:00,,0,82,,0,86.1
2024/1/8,1:30,,0,83.2,,0,80.9
2024/1/8,2:00,,0,84.6,,0,80
2024/1/8,2:30,,0,84.8,,0,81.8
2024/1/8,3:00,,0,83.8,,0,76.3
2024/1/8,3:30,,0,84.5,,0,73.5
2024/1/8,4:00,,0,87,,0,65.7
2024/1/8,4:30,,0,88.1,,0,64.2
2024/1/8,5:00,,0,88,,0,59.8
2024/1/8,5:30,,0,90.5,,0,56
2024/1/8,6:00,,0,95.5,,0,53.8
2024/1/8,6:30,,0,99.8,,0,51.7
2024/1/8,7:00,,24.9,103.2,,1.8,49.4
2024/1/8,7:30,,69,104.2,,80.2,51
2024/1/8,8:00,,144.4,102.6,,175.4,51
2024/1/8,8:30,,211.5,100.4,,280.2,51.2
2024/1/8,9:00,,275.1,97.4,,382.1,53
2024/1/8,9:30,,324.7,95,,475.5,60.1
2024/1/8,10:00,,365.4,93.2,,528.6,64.3
2024/1/8,10:30,,393.8,92.6,,542.9,69.7
2024/1/8,11:00,,416.6,93.1,,495,70.8
2024/1/8,11:30,,420.3,94,,500.1,91.5
2024/1/8,12:00,,433.1,95.4,,468.8,95.3
2024/1/8,12:30,,419.2,96.9,,465.4,97
2024/1/8,13:00,,426.1,98.6,,425.9,93.9
2024/1/8,13:30,,380.2,98.1,,350.5,100.3
2024/1/8,14:00,,338.1,95.5,,267.4,116.3
2024/1/8,14:30,,249.7,94.6,,174.3,127.8
2024/1/8,15:00,,143.6,95.2,,86.6,123.2
2024/1/8,15:30,,68.1,94.2,,17.6,110.3
2024/1/8,16:00,,0,91.4,,1.2,106.1
2024/1/8,16:30,,0,89.3,,1.4,109.1
2024/1/8,17:00,,0,87.8,,1,108.3
2024/1/8,17:30,,0,87.2,,1.2,112.7
2024/1/8,18:00,,0,87.5,,0,112.1
2024/1/8,18:30,,0,88.6,,0,116.1
2024/1/8,19:00,,0,90.5,,0,117.3
2024/1/8,19:30,,0,92.4,,0,122.2
2024/1/8,20:00,,0,94.5,,0,118.6
2024/1/8,20:30,,0,96,,0,120.7
2024/1/8,21:00,,0,96.8,,0,115.6
2024/1/8,21:30,,0,96.2,,0,107.6
2024/1/8,22:00,,0,94.2,,0,103.3
2024/1/8,22:30,,0,91,,0,96.5
2024/1/8,23:00,,0,86.5,,0,97.3
2024/1/8,23:30,,0,83.5,,0,94.7
2024/1/9,0:00,,0,82.4,,0,94.3
2024/1/9,0:30,,0,80.8,,0,100.6
2024/1/9,1:00,,0,77.7,,0,96.6
2024/1/9,1:30,,0,75.5,,0,94.3
2024/1/9,2:00,,0,74.3,,0,88
2024/1/9,2:30,,0,73.6,,0,83.5
2024/1/9,3:00,,0,73.7,,0,76.8
2024/1/9,3:30,,0,74.2,,0,74.4
2024/1/9,4:00,,0,75.3,,0,70.1
2024/1/9,4:30,,0,73.7,,0,66.9
2024/1/9,5:00,,0,69.4,,0,61.1
2024/1/9,5:30,,0,66.5,,0,58
2024/1/9,6:00,,0,65.2,,0,55.6
2024/1/9,6:30,,0,63.7,,0,55.9
2024/1/9,7:00,,29.4,62,,3.1,44
2024/1/9,7:30,,78.2,60.9,,107.9,40.2
2024/1/9,8:00,,160.1,60.3,,230.8,34.3
2024/1/9,8:30,,233.6,59.6,,336.3,32.2
2024/1/9,9:00,,307.5,58.8,,422.6,32.3
2024/1/9,9:30,,368.9,56,,495.8,32.9
2024/1/9,10:00,,428.8,51,,550.4,23.5
2024/1/9,10:30,,460,47.2,,563.6,20.3
2024/1/9,11:00,,470,44.3,,540.9,17.2
2024/1/9,11:30,,466.4,41.6,,534.4,17.6
2024/1/9,12:00,,453.5,39,,498.8,17.3
2024/1/9,12:30,,426,39.4,,463.8,18.7
2024/1/9,13:00,,389.6,42.6,,391.4,23
2024/1/9,13:30,,339.3,48.7,,311.7,27.9
2024/1/9,14:00,,281.6,57.8,,234.8,26.5
2024/1/9,14:30,,208.2,62.9,,131.6,33.8
2024/1/9,15:00,,114.3,64,,49.7,41.4
2024/1/9,15:30,,54.8,65.1,,5.7,46.9
2024/1/9,16:00,,0,66.2,,0,47.3
2024/1/9,16:30,,0,68.9,,0,57.8
2024/1/9,17:00,,0,73.6,,0,63.3
2024/1/9,17:30,,0,76.8,,0,78.9
2024/1/9,18:00,,0,78.8,,0,91.8
2024/1/9,18:30,,0,80.5,,0,101.9
2024/1/9,19:00,,0,81.9,,0,112.7
2024/1/9,19:30,,0,84.9,,0,119.7
2024/1/9,20:00,,0,89.5,,0,112.3
2024/1/9,20:30,,0,92.3,,0,107.3
2024/1/9,21:00,,0,93.3,,0,107.9
2024/1/9,21:30,,0,92.5,,0,112.5
2024/1/9,22:00,,0,90,,0,113.8
2024/1/9,22:30,,0,88.9,,0,110.7
2024/1/9,23:00,,0,89.5,,0,116.1
2024/1/9,23:30,,0,89.1,,0,121.6
2024/1/10,0:00,,0,85.5,,0,114.3
2024/1/10,0:30,,0,84.9,,0,109.1
2024/1/10,1:00,,0,85.2,,0,101.6
2024/1/10,1:30,,0,85.5,,0,106.5
2024/1/10,2:00,,0,85.7,,0,107.4
2024/1/10,2:30,,0,86.1,,0,122.7
2024/1/10,3:00,,0,86.6,,0,131.6
2024/1/10,3:30,,0,87,,0,135.1
2024/1/10,4:00,,0,87.3,,0,137.9
2024/1/10,4:30,,0,89.5,,0,143.7
2024/1/10,5:00,,0,93.7,,0,138.1
2024/1/10,5:30,,0,96,,0,138.8
2024/1/10,6:00,,0,96.4,,0,136
2024/1/10,6:30,,0,97.3,,0,131.9
2024/1/10,7:00,,9,98.7,,1.6,126.9
2024/1/10,7:30,,27.3,100.7,,81.4,127.3
2024/1/10,8:00,,71,103.1,,169.9,129.4
2024/1/10,8:30,,117.7,106,,263.6,135.3
2024/1/10,9:00,,199.5,109.5,,347.6,138.8
2024/1/10,9:30,,256.3,110.3,,410.8,146.1
2024/1/10,10:00,,330.8,108.3,,478.7,143.2
2024/1/10,10:30,,367.1,108,,477.2,144.5
2024/1/10,11:00,,397.9,109.2,,474.4,136.9
2024/1/10,11:30,,404.9,110.4,,452.9,138.2
2024/1/10,12:00,,399.5,111.7,,432.8,136.5
2024/1/10,12:30,,378.6,111.2,,431.3,135.3
2024/1/10,13:00,,350.3,105.3,,364,132.3
2024/1/10,13:30,,306.4,103.9,,278.1,133
2024/1/10,14:00,,261.4,103.6,,220.6,133.8
2024/1/10,14:30,,191.5,102.9,,134.2,130.2
2024/1/10,15:00,,111.8,101.9,,69.3,124.7
2024/1/10,15:30,,54.2,97.9,,23.4,114.3
2024/1/10,16:00,,0,94.5,,2.3,99.3
2024/1/10,16:30,,0,90.2,,0.4,99.9
2024/1/10,17:00,,0,88.8,,0.1,99.3
2024/1/10,17:30,,0,86.2,,0,101
2024/1/10,18:00,,0,82.3,,0,97.9
2024/1/10,18:30,,0,77.7,,0,95.5
2024/1/10,19:00,,0,72.2,,0,85.2
2024/1/10,19:30,,0,68.6,,0,72
2024/1/10,20:00,,0,66.9,,0,63.5
2024/1/10,20:30,,0,64.8,,0,65.8
2024/1/10,21:00,,0,62.4,,0,70.6
2024/1/10,21:30,,0,57.8,,0,62.9
2024/1/10,22:00,,0,50.9,,0,57.8
2024/1/10,22:30,,0,45,,0,53.2
2024/1/10,23:00,,0,40.1,,0,49.7
2024/1/10,23:30,,0,36.2,,0,49.7
2024/1/11,0:00,,0,38.8,,0,46.2
2024/1/11,0:30,,0,38.1,,0,45.1
2024/1/11,1:00,,0,41.5,,0,42.4
2024/1/11,1:30,,0,43.1,,0,39.4
2024/1/11,2:00,,0,43,,0,33.2
2024/1/11,2:30,,0,41.8,,0,32.2
2024/1/11,3:00,,0,39.5,,0,26.2
2024/1/11,3:30,,0,38.8,,0,19.6
2024/1/11,4:00,,0,39.7,,0,12
2024/1/11,4:30,,0,39.6,,0,10.8
2024/1/11,5:00,,0,38.4,,0,8.8
2024/1/11,5:30,,0,35.9,,0,8.4
2024/1/11,6:00,,0,32,,0,11.7
2024/1/11,6:30,,0,29,,0,16.6
2024/1/11,7:00,,34.1,26.9,,3.5,20.6
2024/1/11,7:30,,100.6,25.9,,97.2,25.7
2024/1/11,8:00,,223.2,26.1,,208.9,26.6
2024/1/11,8:30,,331.5,25.3,,313.2,29.2
2024/1/11,9:00,,462.5,23.5,,438.5,29.3
2024/1/11,9:30,,542.9,22.2,,525.1,29.7
2024/1/11,10:00,,624,21.1,,607.8,23.8
2024/1/11,10:30,,664.2,21.1,,658.2,19.6
2024/1/11,11:00,,701.7,22,,695.9,15.3
2024/1/11,11:30,,714.1,23.6,,680.9,15.8
2024/1/11,12:00,,705.4,25.8,,660,16.9
2024/1/11,12:30,,676.3,27.5,,610.9,19.8
2024/1/11,13:00,,628.8,28.8,,528.8,18.6
2024/1/11,13:30,,556.6,29.2,,425.4,23.4
2024/1/11,14:00,,460.8,28.7,,290.8,30.4
2024/1/11,14:30,,339.1,31.3,,178,34.6
2024/1/11,15:00,,193.1,37.1,,74.4,34.9
2024/1/11,15:30,,92.2,36.9,,16.5,40.8
2024/1/11,16:00,,0,30.7,,0.9,46.3
2024/1/11,16:30,,0,29.6,,1,51.6
2024/1/11,17:00,,0,33.9,,0.1,58.8
2024/1/11,17:30,,0,38.5,,0,66.8
2024/1/11,18:00,,0,43.6,,0,69.7
2024/1/11,18:30,,0,50,,0,84.6
2024/1/11,19:00,,0,57.7,,0,91.7
2024/1/11,19:30,,0,61.8,,0,99.8
2024/1/11,20:00,,0,62.3,,0,101.7
2024/1/11,20:30,,0,63.6,,0,101.1
2024/1/11,21:00,,0,65.6,,0,102.6
2024/1/11,21:30,,0,65.4,,0,105.2
2024/1/11,22:00,,0,63,,0,111.5
2024/1/11,22:30,,0,63.2,,0,114.8
2024/1/11,23:00,,0,66,,0,123.6
2024/1/11,23:30,,0,72.4,,0,134
2024/1/12,0:00,,0,86.8,,0,132.2
2024/1/12,0:30,,0,89.1,,0,127
2024/1/12,1:00,,0,93.8,,0,120
2024/1/12,1:30,,0,95.7,,0,124.5
2024/1/12,2:00,,0,94.8,,0,124.4
2024/1/12,2:30,,0,96.9,,0,123.7
2024/1/12,3:00,,0,101.9,,0,127.5
2024/1/12,3:30,,0,104.2,,0,123.8
2024/1/12,4:00,,0,103.9,,0,117.9
2024/1/12,4:30,,0,100.3,,0,112.8
2024/1/12,5:00,,0,93.5,,0,113.1
2024/1/12,5:30,,0,86.1,,0,113.9
2024/1/12,6:00,,0,78.1,,0,116.7
2024/1/12,6:30,,0,76.8,,0,116.2
2024/1/12,7:00,,12.2,82,,1.3,113.4
2024/1/12,7:30,,30.8,87.2,,60.5,114.4
2024/1/12,8:00,,64.3,92.4,,127.3,115.9
2024/1/12,8:30,,98.5,99,,170.3,115.5
2024/1/12,9:00,,152.3,107,,217.9,123.1
2024/1/12,9:30,,194.7,110,,292.2,129.4
2024/1/12,10:00,,266,108.2,,363.9,141.5
2024/1/12,10:30,,313,105.4,,413.5,148.2
2024/1/12,11:00,,376.3,101.7,,429.9,130.2
2024/1/12,11:30,,401.5,101.2,,396.5,127.8
2024/1/12,12:00,,418,104,,394.8,125.9
2024/1/12,12:30,,407.3,106.8,,435.4,124.9
2024/1/12,13:00,,392.2,109.6,,384.4,123.9
2024/1/12,13:30,,355.8,113.7,,339.2,135.1
2024/1/12,14:00,,309.4,119.1,,279,143
2024/1/12,14:30,,235.5,122.9,,185.3,136.4
2024/1/12,15:00,,136.1,125.1,,106.6,134.9
2024/1/12,15:30,,68.5,125.1,,35.5,128
2024/1/12,16:00,,0,122.8,,0.9,123.1
2024/1/12,16:30,,0,122.5,,0.3,127.8
2024/1/12,17:00,,0,124.1,,0.5,129.4
2024/1/12,17:30,,0,126.1,,0,132.6
2024/1/12,18:00,,0,128.5,,0,127.6
2024/1/12,18:30,,0,128.4,,0,130.1
2024/1/12,19:00,,0,125.8,,0,120.7
2024/1/12,19:30,,0,124.3,,0,107.7
2024/1/12,20:00,,0,123.9,,0,94.5
2024/1/12,20:30,,0,123.8,,0,94.1
2024/1/12,21:00,,0,124.2,,0,92.9
2024/1/12,21:30,,0,124.5,,0,95.5
2024/1/12,22:00,,0,100.8,,0,87.2
2024/1/12,22:30,,0,100.9,,0,86.2
2024/1/12,23:00,,0,100,,0,84.4
2024/1/12,23:30,,0,97.7,,0,81.8
2024/1/13,0:00,,0,89.3,,0,79.1
2024/1/13,0:30,,0,88.2,,0,70.3
2024/1/13,1:00,,0,87.3,,0,72.8
2024/1/13,1:30,,0,86.3,,0,75.8
2024/1/13,2:00,,0,85.1,,0,71.5
2024/1/13,2:30,,0,84.3,,0,67.5
2024/1/13,3:00,,0,84,,0,61.8
2024/1/13,3:30,,0,82,,0,61.7
2024/1/13,4:00,,0,78,,0,57.9
2024/1/13,4:30,,0,74.7,,0,55.6
2024/1/13,5:00,,0,71.9,,0,55.6
2024/1/13,5:30,,0,70,,0,56.5
2024/1/13,6:00,,0,68.9,,0,47.8
2024/1/13,6:30,,0,67.4,,0,39.5
2024/1/13,7:00,,26.3,65.3,,2.5,32.9
2024/1/13,7:30,,72.5,63,,83.1,32
2024/1/13,8:00,,152.1,60.5,,181.7,33.4
2024/1/13,8:30,,223.2,75.9,,297.2,31.6
2024/1/13,9:00,,289.9,74.7,,390.9,26.1
2024/1/13,9:30,,338.6,74.9,,467.6,25
2024/1/13,10:00,,375.2,76.5,,519.1,18.8
2024/1/13,10:30,,400.8,77,,566.5,20.3
2024/1/13,11:00,,426,76.4,,604.8,18.1
2024/1/13,11:30,,440,78.2,,634.7,19.6
2024/1/13,12:00,,457.1,82.5,,632.1,21.7
2024/1/13,12:30,,440.7,87.8,,618.2,22
2024/1/13,13:00,,444,94.3,,567.8,24.2
2024/1/13,13:30,,397.5,96.4,,495.2,18.6
2024/1/13,14:00,,349.8,94.2,,394.6,17.7
2024/1/13,14:30,,262.7,93.2,,258.2,25
2024/1/13,15:00,,155.4,93.5,,119.6,26.4
2024/1/13,15:30,,76.9,93.7,,34.5,35.3
2024/1/13,16:00,,0,93.8,,4.2,36.7
2024/1/13,16:30,,0,94.7,,3.6,41.6
2024/1/13,17:00,,0,96.3,,3.6,39.2
2024/1/13,17:30,,0,97.2,,3.6,41.6
2024/1/13,18:00,,0,97.4,,3.4,45.4
2024/1/13,18:30,,0,95.4,,3.5,55.6
2024/1/13,19:00,,0,91.3,,3.4,58.7
2024/1/13,19:30,,0,89.1,,3.5,61.2
2024/1/13,20:00,,0,88.6,,3.4,56.7
2024/1/13,20:30,,0,87.6,,3.5,58.3
2024/1/13,21:00,,0,86.3,,3.4,55.6
2024/1/13,21:30,,0,83.4,,3.5,57.4
2024/1/13,22:00,,0,78.9,,2.2,54.8
2024/1/13,22:30,,0,75.7,,0.1,57
2024/1/13,23:00,,0,73.6,,0,58.8
2024/1/13,23:30,,0,70.1,,0,57.6
2024/1/14,0:00,,0,55.7,,0,52.9
2024/1/14,0:30,,0,56.2,,0,45.9
2024/1/14,1:00,,0,53.6,,0,38
2024/1/14,1:30,,0,51.8,,0,32
2024/1/14,2:00,,0,50.8,,0,26.7
2024/1/14,2:30,,0,49.5,,0,31.8
2024/1/14,3:00,,0,47.6,,0,35.9
2024/1/14,3:30,,0,47.7,,0,43.7
2024/1/14,4:00,,0,49.7,,0,45.2
2024/1/14,4:30,,0,51.3,,0,46.6
2024/1/14,5:00,,0,52.5,,0,36
2024/1/14,5:30,,0,52,,0,36.4
2024/1/14,6:00,,0,49.7,,0,34
2024/1/14,6:30,,0,47.6,,0,35.3
2024/1/14,7:00,,23.3,45.6,,6.5,33.5
2024/1/14,7:30,,61.4,43.6,,92,39
2024/1/14,8:00,,127.9,41.6,,206.7,39.6
2024/1/14,8:30,,190.4,40.9,,302.4,40.6
2024/1/14,9:00,,267.8,41.6,,385.8,43.2
2024/1/14,9:30,,321.8,43.2,,440.3,48.6
2024/1/14,10:00,,383.5,45.7,,456.8,55.4
2024/1/14,10:30,,416,50.4,,480.5,65.8
2024/1/14,11:00,,456.9,57.1,,471,68.2
2024/1/14,11:30,,463.4,61.6,,460.3,67.8
2024/1/14,12:00,,459.8,63.6,,457.2,63.2
2024/1/14,12:30,,438.1,64.6,,427.7,61
2024/1/14,13:00,,409.4,64.5,,367.5,59.2
2024/1/14,13:30,,360.9,63.3,,280.2,56
2024/1/14,14:00,,298.7,60.9,,202,50.6
2024/1/14,14:30,,221.3,59.6,,131.6,45.4
2024/1/14,15:00,,131.3,59.2,,60.8,43
2024/1/14,15:30,,67.1,56.4,,17.8,41.8
2024/1/14,16:00,,0,51.4,,0,36.7
2024/1/14,16:30,,0,47.3,,0,44
2024/1/14,17:00,,0,44.2,,0.1,49.8
2024/1/14,17:30,,0,40.3,,0.1,65.1
2024/1/14,18:00,,0,35.7,,0,76.3
2024/1/14,18:30,,0,34.4,,0,89.6
2024/1/14,19:00,,0,36.5,,0,80.2
2024/1/14,19:30,,0,40.2,,0,68.8
2024/1/14,20:00,,0,45.7,,0,63.6
2024/1/14,20:30,,0,50.4,,0,64.8
2024/1/14,21:00,,0,54.1,,0,66.6
2024/1/14,21:30,,0,55.1,,0,72.8
2024/1/14,22:00,,0,53.3,,0,68.6
2024/1/14,22:30,,0,54.5,,0,73.7
2024/1/14,23:00,,0,58.6,,0,87
2024/1/14,23:30,,0,63.5,,0,103.3
2024/1/15,0:00,,0,79.5,,0,109.7
2024/1/15,0:30,,0,90.2,,0,118.7
2024/1/15,1:00,,0,110.7,,0,119.5
2024/1/15,1:30,,0,122.4,,0,129.3
2024/1/15,2:00,,0,125.3,,0,142.4
2024/1/15,2:30,,0,128.6,,0,142.5
2024/1/15,3:00,,0,132.2,,0,132.8
2024/1/15,3:30,,0,134.9,,0,125.9
2024/1/15,4:00,,0,136.8,,0,147.1
2024/1/15,4:30,,0,138.9,,0,148.7
2024/1/15,5:00,,0,141.2,,0,149.3
2024/1/15,5:30,,0,142.5,,0,153.2
2024/1/15,6:00,,0,142.7,,0,152.7
2024/1/15,6:30,,0,140.8,,0,153
2024/1/15,7:00,,4.1,136.8,,1,155.2
2024/1/15,7:30,,10.9,135.8,,16.5,156.7
2024/1/15,8:00,,30.9,137.8,,41.7,160
2024/1/15,8:30,,48.8,138,,72.5,155